DW8016 Weather Reports


time (UTC)temp
C
wind
direction
speed
KPH
gust
KPH
rain 1hr
cm
rain 24hr
cm
rain mn
cm
humidity
%
barometer
mb
20260505160517 27 194 6.4 17.7 0.00 0.00 0.00 39 1010.6
20260505152333 26 257 4.8 16.1 0.00 0.00 0.00 42 1011.0
20260505150212 25 200 8.0 17.7 0.00 0.00 0.00 42 1010.9
20260505124526 21 279 4.8 12.9 0.00 0.00 0.00 47 1011.2
20260505123509 20 215 4.8 14.5 0.00 0.00 0.00 48 1011.2
20260505122437 20 227 4.8 14.5 0.00 0.00 0.00 48 1011.3
20260505121404 20 259 4.8 12.9 0.00 0.00 0.00 50 1011.3
20260505120410 19 235 3.2 12.9 0.00 0.00 0.00 51 1011.1
20260505115348 18 226 1.6 9.7 0.00 0.00 0.00 54 1011.0
20260505113154 17 189 3.2 9.7 0.00 0.00 0.00 56 1010.8
20260505110944 16 235 1.6 16.1 0.00 0.00 0.00 57 1010.6
20260505101832 16 214 3.2 14.5 0.00 0.00 0.00 58 1010.1
20260505100854 16 188 3.2 14.5 0.00 0.00 0.00 59 1010.1
20260505095846 16 169 4.8 14.5 0.00 0.00 0.00 58 1010.1
20260505094831 16 213 4.8 12.9 0.00 0.00 0.00 58 1010.0
20260505093801 16 189 3.2 11.3 0.00 0.00 0.00 58 1009.9
20260505091601 16 173 4.8 12.9 0.00 0.00 0.00 58 1009.7
20260505090548 16 149 4.8 12.9 0.00 0.00 0.00 58 1009.6
20260505085523 16 234 3.2 14.5 0.00 0.00 0.00 58 1009.7
20260505084513 16 167 4.8 14.5 0.00 0.00 0.00 59 1009.7
20260505083501 16 161 4.8 14.5 0.00 0.00 0.00 60 1009.7
20260505081254 16 178 6.4 14.5 0.00 0.00 0.00 61 1009.7
20260505080237 16 163 4.8 14.5 0.00 0.00 0.00 61 1009.7
20260505075215 16 161 4.8 12.9 0.00 0.00 0.00 61 1009.6
20260505074210 16 217 4.8 11.3 0.00 0.00 0.00 61 1009.6
20260505072112 16 181 6.4 12.9 0.00 0.00 0.00 61 1009.6
20260505071043 16 185 3.2 8.0 0.00 0.00 0.00 60 1009.5
20260505070047 16 166 3.2 11.3 0.00 0.00 0.00 60 1009.4
20260505065021 17 163 3.2 11.3 0.00 0.00 0.00 60 1009.4
20260505064004 17 182 3.2 8.0 0.00 0.00 0.00 59 1009.4
20260505062940 17 175 1.6 8.0 0.00 0.00 0.00 59 1009.4
20260505060806 17 190 1.6 9.7 0.00 0.00 0.00 59 1009.4
20260505054616 17 173 1.6 9.7 0.00 0.00 0.00 58 1009.5
20260505053556 17 195 0.0 6.4 0.00 0.00 0.00 58 1009.5
20260505052544 17 196 0.0 6.4 0.00 0.00 0.00 57 1009.5
20260505051543 18 166 0.0 4.8 0.00 0.00 0.00 56 1009.6
20260505050537 18 166 0.0 4.8 0.00 0.00 0.00 55 1009.5
20260505041438 18 227 0.0 9.7 0.00 0.00 0.00 52 1009.8
20260505040409 18 196 1.6 9.7 0.00 0.00 0.00 51 1009.7
20260505035352 19 206 1.6 9.7 0.00 0.00 0.00 50 1009.6
20260505034332 19 196 0.0 8.0 0.00 0.00 0.00 49 1009.6
20260505033339 19 180 1.6 8.0 0.00 0.00 0.00 49 1009.6
20260505032328 20 214 1.6 11.3 0.00 0.00 0.00 48 1009.5
20260505030141 20 188 0.0 8.0 0.00 0.00 0.00 47 1009.6
20260505025143 20 190 1.6 9.7 0.00 0.00 0.00 46 1009.5
20260505021944 21 215 1.6 11.3 0.00 0.00 0.00 44 1009.5
20260505020914 21 230 3.2 11.3 0.00 0.00 0.00 44 1009.4
20260505014752 21 186 3.2 8.0 0.00 0.00 0.00 43 1009.3
20260505013757 21 210 0.0 9.7 0.00 0.00 0.00 42 1009.2
20260505012735 21 191 1.6 9.7 0.00 0.00 0.00 42 1009.0
20260505011747 22 180 3.2 12.9 0.00 0.00 0.00 41 1009.0
20260505005712 22 192 0.0 6.4 0.00 0.00 0.00 41 1008.9
20260505004700 22 178 1.6 9.7 0.00 0.00 0.00 41 1008.8
20260505003657 22 196 1.6 9.7 0.00 0.00 0.00 40 1008.8
20260505002707 22 203 1.6 9.7 0.00 0.00 0.00 39 1008.6
20260505001654 23 189 3.2 11.3 0.00 0.00 0.00 39 1008.6
20260505000640 23 281 3.2 20.9 0.00 0.00 0.00 38 1008.6
20260504235607 23 169 3.2 27.4 0.00 0.00 0.00 38 1008.5
20260504234555 23 213 4.8 27.4 0.00 0.00 0.00 37 1008.6
20260504233537 23 230 4.8 14.5 0.00 0.00 0.00 36 1008.4
20260504232505 23 231 4.8 22.5 0.00 0.00 0.00 36 1008.4
20260504231448 23 165 8.0 22.5 0.00 0.00 0.00 35 1008.3
20260504230442 24 162 6.4 17.7 0.00 0.00 0.00 35 1008.3
20260504224320 24 156 4.8 24.1 0.00 0.00 0.00 34 1008.3
20260504223248 24 175 8.0 24.1 0.00 0.00 0.00 34 1008.4
20260504222308 24 218 8.0 19.3 0.00 0.00 0.00 33 1008.4
20260504220131 24 96 8.0 40.2 0.00 0.00 0.00 33 1008.2
20260504214012 24 263 12.9 35.4 0.00 0.00 0.00 33 1008.3
20260504212950 25 244 8.0 22.5 0.00 0.00 0.00 31 1008.3
20260504210854 26 163 8.0 19.3 0.00 0.00 0.00 30 1008.3
20260504205820 26 145 8.0 16.1 0.00 0.00 0.00 29 1008.2
20260504204800 26 184 6.4 22.5 0.00 0.00 0.00 30 1008.4
20260504203813 26 175 6.4 22.5 0.00 0.00 0.00 28 1008.4
20260504202812 26 189 6.4 20.9 0.00 0.00 0.00 29 1008.5
20260504201749 26 250 4.8 16.1 0.00 0.00 0.00 29 1008.7
20260504200801 26 186 4.8 14.5 0.00 0.00 0.00 30 1008.8
20260504194546 26 229 4.8 17.7 0.00 0.00 0.00 30 1009.0
20260504193540 25 244 6.4 20.9 0.00 0.00 0.00 30 1009.2
20260504192531 25 213 8.0 20.9 0.00 0.00 0.00 30 1009.3
20260504190407 25 166 6.4 19.3 0.00 0.00 0.00 32 1009.7
20260504185424 25 167 8.0 19.3 0.00 0.00 0.00 31 1010.0
20260504184412 25 157 6.4 16.1 0.00 0.00 0.00 30 1010.1
20260504183357 26 184 4.8 16.1 0.00 0.00 0.00 29 1010.2
20260504182343 26 227 6.4 22.5 0.00 0.00 0.00 30 1010.4
20260504180151 25 148 4.8 17.7 0.00 0.00 0.00 32 1010.8
20260504175209 25 268 6.4 17.7 0.00 0.00 0.00 31 1011.0
20260504174155 25 117 4.8 17.7 0.00 0.00 0.00 31 1011.1
20260504172101 24 254 4.8 14.5 0.00 0.00 0.00 33 1011.2
20260504171111 24 243 6.4 17.7 0.00 0.00 0.00 31 1011.5